Home > Weather > Copenhagen > Past weeks

Flag for Denmark Past Weather in Copenhagen, Denmark — Yesterday and Last 2 Weeks

Now
68 °F

Passing clouds.


Feels Like: 68 °F
Forecast: 53 / 69 °F
Wind: 6 mph from Southeast

Location: Koebenhavn-Kastrup Airport

Current Time: Aug 27, 2016 at 3:48:25 PM

Latest Report: Aug 27, 2016 at 3:20 PM


Visibility: N/A

Pressure: 30.18 "Hg

Humidity: 60%

Dew Point: 54 °F

Location of CopenhagenLocation

Past Weather in Copenhagen — Graph

°F

Copenhagen Temperature Yesterday

Maximum temperature yesterday: 82 °F (at 6:20 PM)
Minimum temperature yesterday: 64 °F (at 5:20 AM)
Average temperature yesterday: 71 °F

High & Low Weather Summary for the Past Weeks

 TemperatureHumidityPressure
High82 °F (Aug 26, 6:20 PM)100% (Aug 12, 6:20 PM)30.33 "Hg (Aug 12, 6:20 PM)
Low52 °F (Aug 15, 2:50 AM)43% (Aug 17, 7:20 PM)29.80 "Hg (Aug 18, 9:50 AM)
Average64 °F79%30.04 "Hg
* Reported Aug 12 2:20 PM — Aug 27 2:20 PM, Copenhagen, Weather by CustomWeather, © 2016

Note: Actual official high and low records may vary slightly from our data, if they occured in-between our weather recording intervals... More about our weather records

Advertising

Copenhagen Weather History for the Previous 24 Hours

Scroll right to see more
 ConditionsComfort  
Time TempWeatherWind HumidityBarometerVisibility
2:20 PM
Sat, Aug 27
68 °FPassing clouds.6 mph56%30.18 "HgN/A
1:50 PM68 °FPassing clouds.6 mph60%30.18 "HgN/A
1:20 PM68 °FPassing clouds.7 mph60%30.18 "HgN/A
12:50 PM68 °FPassing clouds.7 mph64%30.18 "HgN/A
12:20 PM70 °FPassing clouds.8 mph53%30.18 "HgN/A
11:50 AM70 °FPassing clouds.7 mph57%30.18 "HgN/A
11:20 AM68 °FPassing clouds.7 mph53%30.18 "HgN/A
10:50 AM68 °FPassing clouds.7 mph56%30.18 "HgN/A
10:20 AM66 °FPassing clouds.8 mph60%30.18 "HgN/A
9:50 AM66 °FPassing clouds.8 mph64%30.18 "HgN/A
9:20 AM64 °FSunny.8 mph68%30.15 "Hg10 mi
8:50 AM64 °FPassing clouds.8 mph73%30.15 "HgN/A
8:20 AM63 °FPassing clouds.8 mph83%30.15 "HgN/A
7:50 AM61 °FPassing clouds.6 mph88%30.15 "HgN/A
7:20 AM59 °FPassing clouds.5 mph88%30.12 "HgN/A
6:50 AM57 °FPassing clouds.3 mph94%30.12 "HgN/A
6:20 AM57 °FPassing clouds.5 mph88%30.12 "HgN/A
5:50 AM57 °FPassing clouds.6 mph94%30.12 "HgN/A
5:20 AM59 °FClear.6 mph88%30.12 "Hg10 mi
4:50 AM59 °FClear.7 mph88%30.12 "Hg10 mi
4:20 AM59 °FClear.8 mph88%30.12 "Hg10 mi
3:50 AM61 °FClear.8 mph88%30.12 "Hg10 mi
3:20 AM61 °FClear.9 mph88%30.09 "Hg10 mi
2:50 AM63 °FClear.8 mph83%30.09 "Hg10 mi
2:20 AM63 °FClear.10 mph83%30.09 "Hg10 mi
1:50 AM64 °FClear.7 mph83%30.07 "Hg10 mi
1:20 AM64 °FPassing clouds.6 mph83%30.07 "HgN/A
12:50 AM64 °FPassing clouds.5 mph83%30.07 "HgN/A
12:20 AM66 °FPassing clouds.7 mph78%30.07 "HgN/A
11:50 PM
Fri, Aug 26
66 °FPassing clouds.9 mph78%30.07 "HgN/A
11:20 PM68 °FClear.10 mph73%30.07 "Hg10 mi
10:50 PM68 °FClear.12 mph73%30.07 "Hg10 mi
10:20 PM70 °FClear.14 mph73%30.04 "Hg10 mi
9:50 PM72 °FClear.13 mph69%30.04 "Hg10 mi
9:20 PM73 °FClear.10 mph65%30.01 "Hg10 mi
8:50 PM73 °FSunny.15 mph65%30.01 "Hg10 mi
8:20 PM75 °FSunny.14 mph61%30.01 "Hg10 mi
7:50 PM79 °FSunny.12 mph58%29.98 "Hg10 mi
7:20 PM81 °FSunny.14 mph51%29.98 "Hg10 mi
6:50 PM81 °FSunny.10 mph62%29.95 "Hg10 mi
6:20 PM82 °FSunny.13 mph55%29.95 "Hg10 mi
5:50 PM81 °FSunny.9 mph62%29.95 "Hg10 mi
5:20 PM81 °FSunny.9 mph58%29.95 "Hg10 mi
4:50 PM81 °FSunny.13 mph58%29.95 "Hg10 mi
4:20 PM79 °FSunny.13 mph61%29.95 "Hg10 mi
3:50 PM77 °FSunny.16 mph61%29.95 "Hg10 mi
3:20 PM77 °FSunny.13 mph65%29.95 "Hg10 mi
Weather by CustomWeather, © 2016

See weather overviewHow to use our weather pages